Riverside, CA

9:48 AM PDT on August 27, 2016 (GMT -0700)
Riverside Municipal

Weather History for KRAL - March, 2014

Change the Weather History Date:

Wednesday, March 26, 2014

  Actual Average Record
Temperature  
Mean Temperature 60 °F 60 °F  
Max Temperature 67 °F 72 °F 99 °F (1988)
Min Temperature 52 °F 48 °F 30 °F (1933)
Degree Days  
Heating Degree Days 5 5  
Month to date heating degree days 56 179  
Since 1 July heating degree days 718 1287  
Cooling Degree Days 0 0  
Month to date cooling degree days 30 4  
Year to date cooling degree days 59 13  
Growing Degree Days 9 (Base 50)    
Moisture  
Dew Point 48 °F    
Average Humidity 69    
Maximum Humidity 96    
Minimum Humidity 42    
Precipitation  
Precipitation 0.01 in 0.03 in 1.32 in (1924)
Month to date precipitation 0.26 1.88  
Year to date precipitation 1.36 7.86  
Since 1 July precipitation 2.51  
Snow  
Snow 0.00 in - - ()
Month to date snowfall 0.0  
Year to date snowfall 0.0  
Snow Depth 0.00 in    
Sea Level Pressure  
Sea Level Pressure 29.91 in    
Wind  
Wind Speed 12 mph (WSW)    
Max Wind Speed 25 mph    
Max Gust Speed 32 mph    
Visibility 10 miles    
Events Rain    
T = Trace of Precipitation, MM = Missing Value Source: NWS Daily Summary

Daily Weather History Graph

Daily Weather History Graph

Search for Another Location

Airport or City:

Trip Planner

Search our weather history database for the weather conditions in past years. The results will help you decide how hot, cold, wet, or windy it might be!

Date:

Astronomy

Mar. 26, 2014 Rise Set
Actual Time 6:45 AM PDT 7:06 PM PDT
Civil Twilight 6:20 AM PDT 7:31 PM PDT
Nautical Twilight 5:50 AM PDT 8:00 PM PDT
Astronomical Twilight 5:21 AM PDT 8:30 PM PDT
Moon 3:45 AM PDT (3/26) 3:00 PM PDT (3/26)
Length of Visible Light 13h 10m
Length of Day
12h 20m
Waning Crescent, 21% of the Moon is Illuminated
Mar 26
Waning Crescent
Mar 30
New
Apr 7
First Quarter
Apr 15
Full
Apr 22
Last Quarter

Hourly Weather History & Observations

Time (PDT) Temp. Dew Point Humidity Pressure Visibility Wind Dir Wind Speed Gust Speed Precip Events Conditions
12:53 AM 55.0 °F 50.0 °F 83% 29.89 in 10.0 mi Variable 4.6 mph - N/A   Mostly Cloudy
1:53 AM 55.9 °F 50.0 °F 80% 29.88 in 10.0 mi Calm Calm - N/A   Overcast
2:53 AM 55.9 °F 48.9 °F 77% 29.86 in 10.0 mi Calm Calm - N/A   Overcast
3:53 AM 54.0 °F 50.0 °F 86% 29.86 in 8.0 mi WSW 6.9 mph - 0.00 in Rain Light Rain
4:53 AM 53.1 °F 51.1 °F 93% 29.86 in 10.0 mi Calm Calm - 0.00 in   Scattered Clouds
5:53 AM 55.0 °F 50.0 °F 83% 29.86 in 9.0 mi Calm Calm - 0.00 in Rain Light Rain
6:17 AM 54.0 °F 51.1 °F 90% 29.90 in 10.0 mi West 10.4 mph - 0.01 in Rain Light Rain
6:53 AM 52.0 °F 50.0 °F 93% 29.88 in 5.0 mi WSW 10.4 mph - 0.01 in Rain Light Rain
7:02 AM 53.1 °F 50.0 °F 89% 29.92 in 9.0 mi WSW 8.1 mph - 0.00 in Rain Light Rain
7:53 AM 54.0 °F 51.1 °F 90% 29.90 in 10.0 mi West 9.2 mph - 0.00 in   Mostly Cloudy
8:16 AM 55.0 °F 51.1 °F 86% 29.94 in 10.0 mi West 8.1 mph - N/A   Mostly Cloudy
8:53 AM 55.9 °F 48.9 °F 77% 29.92 in 10.0 mi WSW 10.4 mph - N/A   Mostly Cloudy
9:00 AM 55.9 °F 48.9 °F 77% 29.95 in 10.0 mi WSW 12.7 mph - N/A   Mostly Cloudy
9:40 AM 57.9 °F 48.0 °F 70% 29.96 in 10.0 mi SSW 11.5 mph - N/A   Mostly Cloudy
9:53 AM 57.9 °F 46.9 °F 67% 29.92 in 10.0 mi WSW 8.1 mph - N/A   Mostly Cloudy
10:53 AM 59.0 °F 46.9 °F 64% 29.93 in 10.0 mi WSW 11.5 mph - N/A   Overcast
11:53 AM 60.1 °F 48.0 °F 64% 29.93 in 10.0 mi WSW 17.3 mph 23.0 mph N/A   Overcast
12:53 PM 64.0 °F 46.9 °F 54% 29.91 in 10.0 mi WSW 20.7 mph 25.3 mph N/A   Mostly Cloudy
1:53 PM 64.0 °F 45.0 °F 50% 29.90 in 10.0 mi WSW 18.4 mph 28.8 mph N/A   Scattered Clouds
2:53 PM 66.0 °F 43.0 °F 43% 29.88 in 10.0 mi WSW 17.3 mph 26.5 mph N/A   Partly Cloudy
3:53 PM 64.0 °F 41.0 °F 43% 29.88 in 10.0 mi WSW 15.0 mph 24.2 mph N/A   Mostly Cloudy
4:53 PM 63.0 °F 43.0 °F 48% 29.89 in 10.0 mi WSW 16.1 mph - N/A   Mostly Cloudy
5:53 PM 60.1 °F 45.0 °F 57% 29.90 in 10.0 mi SW 13.8 mph 21.9 mph N/A   Overcast
6:53 PM 59.0 °F 45.0 °F 60% 29.91 in 10.0 mi WSW 15.0 mph - N/A   Overcast
7:53 PM 57.9 °F 45.0 °F 62% 29.92 in 10.0 mi WSW 13.8 mph - N/A   Overcast
8:53 PM 57.0 °F 46.0 °F 67% 29.94 in 10.0 mi WSW 10.4 mph - 0.00 in   Mostly Cloudy
9:53 PM 55.0 °F 48.0 °F 77% 29.95 in 10.0 mi WSW 8.1 mph - N/A   Partly Cloudy
10:11 PM 55.0 °F 48.9 °F 80% 29.98 in 10.0 mi West 6.9 mph - N/A   Mostly Cloudy
10:53 PM 55.0 °F 48.9 °F 80% 29.95 in 10.0 mi WSW 6.9 mph - N/A   Mostly Cloudy
11:01 PM 54.0 °F 48.9 °F 83% 29.98 in 10.0 mi WSW 8.1 mph - N/A   Scattered Clouds
11:53 PM 54.0 °F 48.9 °F 83% 29.95 in 10.0 mi West 6.9 mph - N/A   Mostly Cloudy